Douglas Lake Weather Center

Moon Phase Calendar



Douglas Lake Water Level
Online Cameras

 


      

Current Conditions in Dandridge
7/24/2024 1:59:16 AM

73°F
Feels Like 74
Clouds
Humidity
93%
Pressure
30.12"
Wind
2.2 mph (S)
Dew Point
70°F
UV Index
0/10 (Low)
Visibility
6 mi

Hourly Forecast

Date & Time Wed, Jul 24
1:00 AM
Wed, Jul 24
2:00 AM
Wed, Jul 24
3:00 AM
Wed, Jul 24
4:00 AM
Wed, Jul 24
5:00 AM
Wed, Jul 24
6:00 AM
Wed, Jul 24
7:00 AM
Wed, Jul 24
8:00 AM
Wed, Jul 24
9:00 AM
Wed, Jul 24
10:00 AM
Wed, Jul 24
11:00 AM
Wed, Jul 24
12:00 PM
Wed, Jul 24
1:00 PM
Wed, Jul 24
2:00 PM
Wed, Jul 24
3:00 PM
Wed, Jul 24
4:00 PM
Wed, Jul 24
5:00 PM
Wed, Jul 24
6:00 PM
Wed, Jul 24
7:00 PM
Wed, Jul 24
8:00 PM
Wed, Jul 24
9:00 PM
Wed, Jul 24
10:00 PM
Wed, Jul 24
11:00 PM
Thu, Jul 25
12:00 AM
Thu, Jul 25
1:00 AM
Thu, Jul 25
2:00 AM
Thu, Jul 25
3:00 AM
Thu, Jul 25
4:00 AM
Thu, Jul 25
5:00 AM
Thu, Jul 25
6:00 AM
Thu, Jul 25
7:00 AM
Thu, Jul 25
8:00 AM
Thu, Jul 25
9:00 AM
Thu, Jul 25
10:00 AM
Thu, Jul 25
11:00 AM
Thu, Jul 25
12:00 PM
Thu, Jul 25
1:00 PM
Thu, Jul 25
2:00 PM
Thu, Jul 25
3:00 PM
Thu, Jul 25
4:00 PM
Thu, Jul 25
5:00 PM
Thu, Jul 25
6:00 PM
Thu, Jul 25
7:00 PM
Thu, Jul 25
8:00 PM
Thu, Jul 25
9:00 PM
Thu, Jul 25
10:00 PM
Thu, Jul 25
11:00 PM
Fri, Jul 26
12:00 AM
Condition
Clouds

Clouds

Clouds

Clouds

Clouds

Rain

Rain

Clouds

Clouds

Clouds

Clouds

Clouds

Clouds

Clouds

Clouds

Clouds

Rain

Clouds

Rain

Clouds

Clouds

Clouds

Clouds

Clouds

Clouds

Rain

Clouds

Clouds

Rain

Rain

Rain

Clouds

Clouds

Clouds

Clouds

Clouds

Clouds

Rain

Rain

Rain

Rain

Rain

Rain

Rain

Rain

Clouds

Clouds

Clouds
Temperature 72°F73°F72°F71°F70°F69°F68°F69°F71°F72°F73°F75°F79°F75°F75°F75°F73°F72°F70°F70°F69°F69°F67°F68°F69°F69°F68°F68°F67°F67°F67°F67°F69°F71°F74°F78°F81°F83°F84°F81°F79°F77°F76°F73°F71°F70°F69°F68°F
Feels Like 73°F74°F73°F72°F71°F70°F69°F70°F72°F73°F74°F76°F79°F76°F76°F75°F74°F73°F71°F71°F70°F70°F68°F70°F70°F70°F69°F69°F68°F68°F68°F68°F70°F72°F75°F79°F83°F85°F86°F85°F80°F79°F78°F75°F72°F71°F70°F69°F
Cloudiness 100%100%100%100%100%100%100%100%100%100%100%100%100%100%100%100%100%100%100%100%100%100%88%91%93%94%100%100%100%100%100%100%100%100%100%100%100%100%99%100%100%100%100%100%99%95%96%96%
Visibility 6 mi6 mi6 mi6 mi6 mi6 mi6 mi6 mi6 mi6 mi6 mi6 mi6 mi6 mi6 mi6 mi6 mi6 mi6 mi6 mi6 mi6 mi6 mi6 mi6 mi6 mi6 mi6 mi6 mi6 mi6 mi6 mi6 mi6 mi6 mi6 mi6 mi6 mi6 mi5 mi6 mi6 mi5 mi6 mi6 mi6 mi6 mi6 mi
Precipitation 34%25%0%0%0%20%20%0%0%0%0%0%0%5%30%38%44%44%44%43%0%0%0%0%0%20%0%0%30%100%100%77%0%0%0%6%19%27%84%100%100%100%100%100%74%58%35%21%
Humidity 94%93%93%93%95%95%95%94%91%89%87%79%69%80%79%81%87%90%95%96%96%96%97%96%94%95%95%96%97%98%98%98%96%91%82%70%61%57%56%71%80%84%86%87%89%91%92%93%
Dew Point 70°F70°F70°F69°F68°F67°F66°F67°F68°F68°F68°F68°F68°F68°F68°F68°F68°F68°F68°F68°F67°F67°F66°F67°F66°F66°F66°F66°F66°F66°F66°F66°F67°F68°F68°F67°F66°F66°F66°F70°F71°F72°F71°F69°F68°F67°F66°F66°F
Pressure 30.12"30.12"30.12"30.12"30.12"30.12"30.15"30.15"30.18"30.21"30.21"30.18"30.18"30.18"30.18"30.18"30.18"30.18"30.18"30.18"30.18"30.18"30.21"30.18"30.15"30.18"30.15"30.15"30.15"30.18"30.18"30.18"30.21"30.18"30.18"30.18"30.15"30.12"30.12"30.12"30.12"30.12"30.12"30.12"30.12"30.15"30.15"30.15"
Wind Speed 2.2 mph2.2 mph2.2 mph2.2 mph2.4 mph1.6 mph1 mph0.4 mph1.1 mph1.9 mph2 mph3.5 mph7.6 mph5.8 mph6.6 mph6.7 mph4.8 mph4.8 mph3 mph2.3 mph1.7 mph1.3 mph1.4 mph3.9 mph1.1 mph0.4 mph0.5 mph1.2 mph2.1 mph1.5 mph1 mph0.8 mph1.7 mph1.8 mph3.2 mph4.5 mph6 mph5.8 mph6.4 mph5.5 mph5.1 mph3.8 mph3.1 mph1.7 mph0.3 mph1.8 mph1.4 mph1.6 mph
Wind
Direction
201°
SSW
191°
S
219°
SW
232°
SW
209°
SSW
218°
SW
165°
SSE
193°
SSW
208°
SSW
269°
W
263°
W
264°
W
283°
WNW
283°
WNW
261°
W
251°
WSW
243°
WSW
245°
WSW
240°
WSW
249°
WSW
194°
SSW
158°
SSE
185°
S
139°
SE
153°
SSE
291°
WNW
21°
NNE
196°
SSW
207°
SSW
191°
S
126°
SE
12°
NNE
199°
SSW
183°
S
223°
SW
242°
WSW
255°
WSW
263°
W
272°
W
282°
WNW
291°
WNW
309°
NW
315°
NW
333°
NNW
141°
SE
161°
SSE
178°
S
160°
SSE

Daily Forecast

Date High Low Precip. Humidity
Today
Jul 24

Rain
79 °F
67 °F
44%
69%
Thursday
Jul 25

Rain
84 °F
67 °F
100%
61%
Friday
Jul 26

Rain
89 °F
66 °F
91%
51%
Saturday
Jul 27

Rain
83 °F
68 °F
100%
69%
Sunday
Jul 28

Rain
91 °F
69 °F
100%
46%
Monday
Jul 29

Rain
84 °F
69 °F
100%
77%
Tuesday
Jul 30

Rain
86 °F
69 °F
100%
60%
Wednesday
Jul 31

Rain
91 °F
67 °F
100%
50%
Thursday
Aug 1

Rain
91 °F
69 °F
100%
51%
Friday
Aug 2

Rain
85 °F
69 °F
100%
62%
Saturday
Aug 3

Rain
86 °F
68 °F
100%
57%
Sunday
Aug 4

Rain
90 °F
67 °F
100%
56%
Monday
Aug 5

Rain
87 °F
70 °F
100%
64%
Tuesday
Aug 6

Rain
93 °F
67 °F
100%
51%
Wednesday
Aug 7

Rain
90 °F
66 °F
100%
53%
Thursday
Aug 8

Rain
87 °F
69 °F
100%
58%

Temperature 8-14 Day Outlook



Precipitation 8-14 Day Outlook




Quick Links
Douglas Lake News
Douglas Lake Photos
Douglas Lake Videos




About Us
Contact Us
Site Map
Search Site
Advertise With Us
   
www.DouglasLake.info
THE DOUGLAS LAKE WEBSITE

Copyright 2024, Lakes Online
Privacy    |    Legal